Location: Allen Fire Department Station 4
(33.1073°N, 96.6988°W)
Time: 12:08:36
(UTC+00:00)

Aurora 2 Rocket - Pass Details

Date: 03 December 2021
Orbit: 389 x 1731 km, 25.0° (Epoch: 24 January)

Event Time Altitude Azimuth Distance (km) Brightness Sun altitude
Rises 23:43:20 0° 253° (WSW) 2,704 8.5 -5.4°
Reaches altitude 10° 23:45:28 10° 243° (WSW) 1,957 7.0 -5.8°
Maximum altitude 23:49:36 34° 178° (S) 1,219 4.3 -6.6°
Drops below altitude 10° 23:55:16 10° 115° (ESE) 2,710 5.4 -7.7°
Enters shadow 23:58:33 - 108° (ESE) 3,870 6.2 -8.3°
